Regional Weather Roundup
Issued by NWS

Home | Current Version | Previous Version | Graphics & Text | Print | Product List | Glossary On
Versions: 1 2 3 4 5 6 7 8 9 10 11 12 13 14 15 16 17 18 19 20 21 22 23 24 25 26 27 28 29 30 31 32 33 34 35 36 37 38 39 40 41 42 43 44 45 46 47 48 49 50
000
ASUS43 KMKX 252221
RWRWI

WISCONSIN REGIONAL WEATHER ROUNDUP
NATIONAL WEATHER SERVICE MILWAUKEE/SULLIVAN WI
500 PM CDT WED MAY 25 2016

NOTE: "FAIR" INDICATES FEW OR NO CLOUDS BELOW 12,000 FEET WITH NO
SIGNIFICANT WEATHER AND/OR OBSTRUCTIONS TO VISIBILITY.

WIZ001-002-006>008-014>016-023>028-252300-
NORTHWEST WISCONSIN

CITY           SKY/WX    TMP DP  RH WIND       PRES   REMARKS
SUPERIOR ARPT  LGT RAIN  44  44 100 NE12      29.97R
ASHLAND        LGT RAIN  49  47  93 NE13      29.93R
HAYWARD        HVY RAIN  57  54  89 N12       29.91F FOG
SIREN          CLOUDY    60  58  94 NE7       29.85F
CUMBERLAND     CLOUDY    64  63  94 NE9       29.85F THUNDER
RICE LAKE      TSTM      64  61  90 SE10      29.86F
CHETEK         RAIN      64  62  95 CALM      29.85S
LADYSMITH      TSTM      66  65  94 SE3       29.87S
EAU CLAIRE     HVY RAIN  64  64 100 W7        29.82S VSB 3/4
MENOMONIE      TSTM      68  65  91 CALM      29.82F
NEW RICHMOND   PTSUNNY   71  62  74 S6        29.82F
OSCEOLA        CLOUDY    71  70  96 NE8       29.84F
$$

WIZ003>005-009-010-017-018-252300-
NORTH CENTRAL WISCONSIN

CITY           SKY/WX    TMP DP  RH WIND       PRES   REMARKS
MANITOWISH WTR NOT AVBL
ARBOR VITAE    CLOUDY    74  55  50 SE7       29.90F
WOODRUFF       CLOUDY    74  55  50 SE7       29.90F
RHINELANDER    LGT RAIN  72  57  59 SE14G21   29.92F
EAGLE RIVER      N/A     72  51  46 SE10      29.92F
LAND O LAKES   CLOUDY    73  54  50 E12       29.94F
PHILLIPS       HVY RAIN  65  62  90 SE14G30   29.87S
TOMAHAWK       RAIN      65  62  88 SE3       29.91S
MEDFORD        CLOUDY    66  64  93 E12       29.84F THUNDER
MERRILL        TSTM      66  64  94 SE9       29.93S
$$

WIZ029-030-035-036-043>047-252300-
CENTRAL WISCONSIN

CITY           SKY/WX    TMP DP  RH WIND       PRES   REMARKS
WAUSAU         LGT RAIN  67  62  84 E8        29.89F
MOSINEE        LGT RAIN  64  63  94 E12       29.90F
MARSHFIELD     CLOUDY    69  63  81 E14       29.84F
STEVENS POINT    N/A     64  61  92 E16       29.89F
WAUPACA        LGT RAIN  71  64  79 E7        29.91S
WAUTOMA        TSTM      65  62  90 NE9       29.91R
WISC RAPIDS    CLOUDY    67  63  87 SE9       29.87F
CAMP DOUGLAS   PTSUNNY   67  67 100 E3        29.84F
$$

WIZ011>013-019>022-031-037>040-048>050-252300-
NORTHEAST WISCONSIN

CITY           SKY/WX    TMP DP  RH WIND       PRES   REMARKS
ANTIGO         CLOUDY    70  58  66 SE12      29.94S
SHAWANO        CLOUDY    72  59  64 E8        29.94R
OCONTO         CLOUDY    64  59  83 E9        29.95S
STURGEON BAY   NOT AVBL
GREEN BAY      PTSUNNY   67  59  75 NE10      29.94S
MANITOWOC      MOSUNNY   59  54  83 NE9       29.97R
APPLETON       LGT RAIN  72  55  56 E12G18    29.91R
CLINTONVILLE   LGT RAIN  70  57  64 E9        29.92R
OSHKOSH        TSTM      68  59  73 E8        29.91R
$$

WIZ032>034-041-042-053>061-252300-
SOUTHWEST WISCONSIN

CITY           SKY/WX    TMP DP  RH WIND       PRES   REMARKS
LA CROSSE      PTSUNNY   78  67  68 SE12      29.81S HX  80
SPARTA         CLOUDY    78  67  68 S6        29.83F HX  80
VIROQUA        MOSUNNY   78  65  65 SW14G21   29.85R HX  80
BOSCOBEL       PTSUNNY   79  67  66 S5        29.81F HX  81
PRAIRIE DU CHI CLOUDY    82  60  46 S12       29.82R HX  82
PLATTEVILLE    PTSUNNY   83  63  50 SW22      29.84F HX  84
$$

WIZ056-057-062-063-064-067-068-252300-
SOUTH CENTRAL WISCONSIN

CITY           SKY/WX    TMP DP  RH WIND       PRES   REMARKS
REEDSBURG      CLOUDY    82  61  49 S9        29.83R HX  82
BARABOO/DELLS  PTSUNNY   81  61  49 SE8       29.84S HX  82
LONE ROCK      CLOUDY    83  61  47 S9        29.82S HX  83
MINERAL POINT  CLOUDY    81  61  50 S14G21    29.85S HX  81
MADISON        PTSUNNY   77  66  68 E10       29.84F
MIDDLETON      MOSUNNY   85  59  41 S13G20    29.85S HX  84
WATERTOWN      CLOUDY    73  69  87 CALM      29.88R
MONROE         CLOUDY    82  61  47 S20G26    29.85S HX  83
JANESVILLE     PTSUNNY   79  64  61 S14G20    29.86F HX  81
$$

WIZ051-052-058>065-066-070>072-252300-
SOUTHEAST WISCONSIN

CITY           SKY/WX    TMP DP  RH WIND       PRES   REMARKS
MILWAUKEE      PTSUNNY   58  51  78 NE6       29.92F
WAUKESHA       SUNNY     72  57  60 E12       29.92F
MILWAUKEE/TIMM SUNNY     70  54  56 SE6       29.92F
RACINE         MOSUNNY   64  54  69 N7        29.93F
BURLINGTON     PTSUNNY   79  61  53 SE9       29.89R HX  80
KENOSHA        PTSUNNY   69  58  67 E8        29.90F
FOND DU LAC    LGT RAIN  73  60  63 SE16      29.90R
SHEBOYGAN      MOSUNNY   56  51  84 NE13      29.95F
WEST BEND        N/A     68  57  68 E8        29.92R
JUNEAU         TSTM      71  64  79 S12G25    29.92R
$$

LSZ147-162-252300-
LAKE SUPERIOR

STATION/POSITION TIME  TEMP    WIND        PRES    WAVE
                       AIR SEA DIR/SP/G            HT/PER
                 (UTC) (F)     (DEG/KT/KT) (MB)    (FT/S)
W MID LAKE BUOY  2150   41 38   50/ 17/ 21 1014.5F   3/ 4
DEVILS ISLAND    2200   44      50/ 25/ 27 1013.9F
SAXON HARBOR     2100   47     350/  8/  9 1012.9F
$$

LMZ867-665-643>646-252300-
LAKE MICHIGAN

STATION/POSITION TIME  TEMP    WIND        PRES    WAVE
                       AIR SEA DIR/SP/G            HT/PER
                 (UTC) (F)     (DEG/KT/KT) (MB)    (FT/S)
CHAMBERS ISLAND  2100   58      40/ 11/ 16 1015.2F
N MID LAKE BUOY  2150   49 45   50/ 10/ 10 1014.8F   1
NORTHPORT PIER   2100   55      80/  8/ 11 1015.6F
SISTER BAY       2104   63     110/ 10/ 16   N/A
ALGOMA LAKESHORE 2117           60/ 21/ 25   N/A
KEWAUNEE LAKESHO 2100   52      30/  7/ 11 1014.3F
SHEBOYGAN LAKESH 2200   48     360/ 12/ 13 1014.6F
PORT WASHINGTON  2100   55      40/ 12/ 15 1014.6F
S MID LAKE BUOY  2150   57 53   80/  6/  6 1012.6F   0
KENOSHA   LAKESH 2200   53      10/  6/  8 1012.9F
$$

TC  - TEMPERATURE IN CELSIUS
VSB - VISIBILITY IN STATUTE MILES
WCI - WIND CHILL INDEX
HX  - HEAT INDEX




USA.gov is the U.S. government's official web portal to all federal, state and local government web resources and services.